METEOR 2-11 DEB

Satellite information

Favourite Embed

Satellite Type and Status

DEBRISIN ORBIT

Key statistics

Satellite METEOR 2-11 DEB at a glance.

Uptime

15137

Days in orbit

Revolutions

≈ 14.0

Per day

Orbit

LEO

Low Earth Orbit

Inclination

82.5

Latest

Satellite identification and parameters

Extended collection of information and parameters for METEOR 2-11 DEB.

Object identification

Identified? True

Debris? True

Object name: METEOR 2-11 DEB

International designator: 1984-072M

Object number (NORAD): 40710

Object ID (CCSDS): 40710

Country: COMMONWEALTH OF INDEPENDENT STATES (CIS)

Current information (Y/N): Y

RCS size: SMALL

Orbital parameters

Period: 103.127 minutes

Inclination: 82.5244 deg

SMA: 7284.626 km

Apoapsis: 933.257 km

Periapsis: 879.724 km

RAAN: 161.7733 deg

Eccentricy: 0.00367436

Argument of periapsis: 209.4082 deg

Mean anomaly: 150.5019 deg

Mean motion: 13.96342312 rev/day

Mean motion (dot): 0.00004425 rev/day2

B* drag term: 0.0031831102 1/REarth

Two-line elements (TLE)

Creation date: Dec. 13, 2025, 4:32 a.m.

Reference frame: TEME

Reference center: EARTH

Epoch: Dec. 12, 2025, 5:58 p.m. UTC

TLE line 0: 0 METEOR 2-11 DEB

TLE line 1: 1 40710U 84072M 25346.74881729 .00004425 00000-0 31831-2 0 9992

TLE line 2: 2 40710 82.5244 161.7733 0036744 209.4082 150.5019 13.96342312 85105

Live tracking on map

Real-time ground track for satellite METEOR 2-11 DEB.

In-orbit conjunctions

A list of the most updated potential collisions computed for object METEOR 2-11 DEB.

Target Orbit TCA Probability of collision Miss distance Type
CZ-6A DEB LEO 2025-11-22 03:58:12 0.000142545 259.0 (m) DEBRIS
FENGYUN 1C DEB SSO 2024-12-22 14:27:10 0.000234815 37.0 (m) DEBRIS
COSMOS 970 DEB LEO 2024-11-14 00:19:38 0.000515925 135.0 (m) DEBRIS
FENGYUN 1C DEB SSO 2024-11-08 19:08:52 0.000303145 171.0 (m) DEBRIS

Associated space launch

Second generation soviet meteorological satellite

METEOR 2-11 DEB was lifted into orbit during the mission ‘Tsiklon-3 | Meteor-2 11’, on board a Tsiklon-3 space rocket.

The launch took place on July 5, 1984, 3:35 a.m. from 32/2.

For more information about the launch, click the button.

Launch to space Tsiklon-3 | Meteor-2 11
Tsiklon-3 | Meteor-2 11

Agency: N/A

Status: Launch Successful

Launch date: July 5, 1984, 3:35 a.m. UTC

Rocket: Tsiklon-3

Launch pad: 32/2

Location: Plesetsk Cosmodrome, Russian Federation

...

Latest news about this satellite

There are no fresh news available about this satellite. Check back as we update our databases every day.


Newsletter sign-up

Weekly statistics, charts and insights to help you stay on top of the space industry.